Year,Month,Day,Hour,Minute,Value (Times are PST for temperature in C)
2012,05,19,00,00,5.40
2012,05,19,00,01,5.30
2012,05,19,00,02,5.30
2012,05,19,00,03,5.30
2012,05,19,00,04,5.30
2012,05,19,00,05,5.20
2012,05,19,00,06,5.20
2012,05,19,00,07,5.20
2012,05,19,00,08,5.10
2012,05,19,00,09,5.10
2012,05,19,00,10,5.10
2012,05,19,00,11,5.10
2012,05,19,00,12,5.10
2012,05,19,00,13,5.10
2012,05,19,00,14,5.00
2012,05,19,00,15,4.90
2012,05,19,00,16,4.90
2012,05,19,00,17,4.90
2012,05,19,00,18,4.90
2012,05,19,00,19,4.90
2012,05,19,00,20,4.90
2012,05,19,00,21,4.90
2012,05,19,00,22,4.90
2012,05,19,00,23,4.90
2012,05,19,00,24,4.90
2012,05,19,00,25,4.90
2012,05,19,00,26,4.90
2012,05,19,00,27,4.90
2012,05,19,00,28,4.90
2012,05,19,00,29,4.90
2012,05,19,00,30,4.90
2012,05,19,00,31,4.90
2012,05,19,00,32,4.90
2012,05,19,00,33,4.90
2012,05,19,00,34,4.90
2012,05,19,00,35,4.90
2012,05,19,00,36,4.90
2012,05,19,00,37,4.90
2012,05,19,00,38,4.90
2012,05,19,00,39,4.90
2012,05,19,00,40,4.90
2012,05,19,00,41,4.90
2012,05,19,00,42,4.90
2012,05,19,00,43,4.90
2012,05,19,00,44,4.90
2012,05,19,00,45,4.90
2012,05,19,00,46,4.90
2012,05,19,00,47,4.90
2012,05,19,00,48,4.90
2012,05,19,00,49,4.90
2012,05,19,00,50,4.90
2012,05,19,00,51,4.80
2012,05,19,00,52,4.50
2012,05,19,00,53,4.50
2012,05,19,00,54,4.50
2012,05,19,00,55,4.40
2012,05,19,00,56,4.40
2012,05,19,00,57,4.40
2012,05,19,00,58,4.40
2012,05,19,00,59,4.30
2012,05,19,01,00,4.30
2012,05,19,01,01,4.30
2012,05,19,01,02,4.30
2012,05,19,01,03,4.30
2012,05,19,01,04,4.20
2012,05,19,01,05,4.20
2012,05,19,01,06,4.20
2012,05,19,01,07,4.20
2012,05,19,01,08,4.20
2012,05,19,01,09,4.20
2012,05,19,01,10,4.20
2012,05,19,01,11,4.20
2012,05,19,01,12,4.20
2012,05,19,01,13,4.10
2012,05,19,01,14,4.10
2012,05,19,01,15,4.10
2012,05,19,01,16,4.10
2012,05,19,01,17,4.00
2012,05,19,01,18,4.00
2012,05,19,01,19,4.00
2012,05,19,01,20,4.00
2012,05,19,01,21,4.00
2012,05,19,01,22,4.00
2012,05,19,01,23,4.00
2012,05,19,01,24,4.00
2012,05,19,01,25,4.00
2012,05,19,01,26,4.00
2012,05,19,01,27,3.90
2012,05,19,01,28,3.90
2012,05,19,01,29,3.90
2012,05,19,01,30,3.90
2012,05,19,01,31,3.90
2012,05,19,01,32,3.90
2012,05,19,01,33,3.90
2012,05,19,01,34,3.90
2012,05,19,01,35,3.90
2012,05,19,01,36,3.90
2012,05,19,01,37,3.90
2012,05,19,01,38,3.90
2012,05,19,01,39,3.90
2012,05,19,01,40,3.80
2012,05,19,01,41,3.80
2012,05,19,01,42,3.80
2012,05,19,01,43,3.80
2012,05,19,01,44,3.80
2012,05,19,01,45,3.80
2012,05,19,01,46,3.80
2012,05,19,01,47,3.80
2012,05,19,01,48,3.80
2012,05,19,01,49,3.80
2012,05,19,01,50,3.80
2012,05,19,01,51,3.80
2012,05,19,01,52,3.80
2012,05,19,01,53,3.80
2012,05,19,01,54,3.80
2012,05,19,01,55,3.70
2012,05,19,01,56,3.70
2012,05,19,01,57,3.70
2012,05,19,01,58,3.70
2012,05,19,01,59,3.70
2012,05,19,02,00,3.70
2012,05,19,02,01,3.70
2012,05,19,02,02,3.70
2012,05,19,02,03,3.70
2012,05,19,02,04,3.70
2012,05,19,02,05,3.70
2012,05,19,02,06,3.70
2012,05,19,02,07,3.70
2012,05,19,02,08,3.60
2012,05,19,02,09,3.60
2012,05,19,02,10,3.60
2012,05,19,02,11,3.60
2012,05,19,02,12,3.60
2012,05,19,02,13,3.60
2012,05,19,02,14,3.60
2012,05,19,02,15,3.60
2012,05,19,02,16,3.60
2012,05,19,02,17,3.60
2012,05,19,02,18,3.50
2012,05,19,02,19,3.50
2012,05,19,02,20,3.50
2012,05,19,02,21,3.50
2012,05,19,02,22,3.50
2012,05,19,02,23,3.50
2012,05,19,02,24,3.50
2012,05,19,02,25,3.40
2012,05,19,02,26,3.40
2012,05,19,02,27,3.30
2012,05,19,02,28,3.30
2012,05,19,02,29,3.30
2012,05,19,02,30,3.20
2012,05,19,02,31,3.20
2012,05,19,02,32,3.20
2012,05,19,02,33,3.20
2012,05,19,02,34,3.20
2012,05,19,02,35,3.20
2012,05,19,02,36,3.20
2012,05,19,02,37,3.20
2012,05,19,02,38,3.20
2012,05,19,02,39,3.20
2012,05,19,02,40,3.20
2012,05,19,02,41,3.20
2012,05,19,02,42,3.30
2012,05,19,02,43,3.30
2012,05,19,02,44,3.30
2012,05,19,02,45,3.30
2012,05,19,02,46,3.30
2012,05,19,02,47,3.30
2012,05,19,02,48,3.30
2012,05,19,02,49,3.30
2012,05,19,02,50,3.20
2012,05,19,02,51,3.20
2012,05,19,02,52,3.20
2012,05,19,02,53,3.10
2012,05,19,02,54,3.10
2012,05,19,02,55,3.10
2012,05,19,02,56,3.10
2012,05,19,02,57,3.10
2012,05,19,02,58,3.10
2012,05,19,02,59,3.10
2012,05,19,03,00,3.10
2012,05,19,03,01,3.10
2012,05,19,03,02,3.10
2012,05,19,03,03,3.10
2012,05,19,03,04,3.10
2012,05,19,03,05,3.10
2012,05,19,03,06,3.10
2012,05,19,03,07,3.10
2012,05,19,03,08,3.10
2012,05,19,03,09,3.10
2012,05,19,03,10,3.10
2012,05,19,03,11,3.10
2012,05,19,03,12,3.10
2012,05,19,03,13,3.10
2012,05,19,03,14,2.90
2012,05,19,03,15,2.90
2012,05,19,03,16,2.90
2012,05,19,03,17,2.90
2012,05,19,03,18,2.90
2012,05,19,03,19,2.90
2012,05,19,03,20,2.90
2012,05,19,03,21,2.90
2012,05,19,03,22,2.90
2012,05,19,03,23,2.90
2012,05,19,03,24,2.90
2012,05,19,03,25,2.90
2012,05,19,03,26,2.90
2012,05,19,03,27,2.90
2012,05,19,03,28,2.90
2012,05,19,03,29,2.90
2012,05,19,03,30,2.90
2012,05,19,03,31,2.90
2012,05,19,03,32,2.90
2012,05,19,03,33,2.90
2012,05,19,03,34,2.90
2012,05,19,03,35,2.90
2012,05,19,03,36,2.90
2012,05,19,03,37,2.90
2012,05,19,03,38,2.90
2012,05,19,03,39,2.90
2012,05,19,03,40,2.90
2012,05,19,03,41,2.90
2012,05,19,03,42,2.90
2012,05,19,03,43,2.90
2012,05,19,03,44,2.90
2012,05,19,03,45,2.90
2012,05,19,03,46,2.90
2012,05,19,03,47,2.90
2012,05,19,03,48,2.90
2012,05,19,03,49,2.90
2012,05,19,03,50,2.90
2012,05,19,03,51,2.90
2012,05,19,03,52,2.90
2012,05,19,03,53,2.80
2012,05,19,03,54,2.80
2012,05,19,03,55,2.80
2012,05,19,03,56,2.80
2012,05,19,03,57,2.90
2012,05,19,03,58,2.90
2012,05,19,03,59,2.90
2012,05,19,04,00,2.90
2012,05,19,04,01,2.90
2012,05,19,04,02,2.80
2012,05,19,04,03,2.80
2012,05,19,04,04,2.80
2012,05,19,04,05,2.80
2012,05,19,04,06,2.80
2012,05,19,04,07,2.80
2012,05,19,04,08,2.80
2012,05,19,04,09,2.70
2012,05,19,04,10,2.70
2012,05,19,04,11,2.70
2012,05,19,04,12,2.60
2012,05,19,04,13,2.50
2012,05,19,04,14,2.50
2012,05,19,04,15,2.40
2012,05,19,04,16,2.40
2012,05,19,04,17,2.40
2012,05,19,04,18,2.40
2012,05,19,04,19,2.40
2012,05,19,04,20,2.40
2012,05,19,04,21,2.50
2012,05,19,04,22,2.50
2012,05,19,04,23,2.50
2012,05,19,04,24,2.50
2012,05,19,04,25,2.50
2012,05,19,04,26,2.50
2012,05,19,04,27,2.50
2012,05,19,04,28,2.60
2012,05,19,04,29,2.60
2012,05,19,04,30,2.70
2012,05,19,04,31,2.70
2012,05,19,04,32,2.70
2012,05,19,04,33,2.60
2012,05,19,04,34,2.50
2012,05,19,04,35,2.50
2012,05,19,04,36,2.40
2012,05,19,04,37,2.40
2012,05,19,04,38,2.40
2012,05,19,04,39,2.40
2012,05,19,04,40,2.50
2012,05,19,04,41,2.50
2012,05,19,04,42,2.50
2012,05,19,04,43,2.60
2012,05,19,04,44,2.60
2012,05,19,04,45,2.70
2012,05,19,04,46,2.70
2012,05,19,04,47,2.70
2012,05,19,04,48,2.70
2012,05,19,04,49,2.70
2012,05,19,04,50,2.70
2012,05,19,04,51,2.70
2012,05,19,04,52,2.70
2012,05,19,04,53,2.70
2012,05,19,04,54,2.70
2012,05,19,04,55,2.70
2012,05,19,04,56,2.70
2012,05,19,04,57,2.70
2012,05,19,04,58,2.70
2012,05,19,04,59,2.70
2012,05,19,05,00,2.70
2012,05,19,05,01,2.70
2012,05,19,05,02,2.60
2012,05,19,05,03,2.60
2012,05,19,05,04,2.60
2012,05,19,05,05,2.60
2012,05,19,05,06,2.50
2012,05,19,05,07,2.50
2012,05,19,05,08,2.50
2012,05,19,05,09,2.50
2012,05,19,05,10,2.40
2012,05,19,05,11,2.40
2012,05,19,05,12,2.30
2012,05,19,05,13,2.30
2012,05,19,05,14,2.20
2012,05,19,05,15,2.20
2012,05,19,05,16,2.20
2012,05,19,05,17,2.20
2012,05,19,05,18,2.20
2012,05,19,05,19,2.20
2012,05,19,05,20,2.20
2012,05,19,05,21,2.20
2012,05,19,05,22,2.10
2012,05,19,05,23,2.10
2012,05,19,05,24,2.10
2012,05,19,05,25,2.00
2012,05,19,05,26,2.00
2012,05,19,05,27,2.00
2012,05,19,05,28,2.00
2012,05,19,05,29,2.00
2012,05,19,05,30,1.90
2012,05,19,05,31,1.90
2012,05,19,05,32,1.90
2012,05,19,05,33,1.90
2012,05,19,05,34,1.90
2012,05,19,05,35,1.90
2012,05,19,05,36,1.90
2012,05,19,05,37,1.80
2012,05,19,05,38,1.70
2012,05,19,05,39,1.70
2012,05,19,05,40,1.60
2012,05,19,05,41,1.60
2012,05,19,05,42,1.60
2012,05,19,05,43,1.60
2012,05,19,05,44,1.60
2012,05,19,05,45,1.70
2012,05,19,05,46,1.70
2012,05,19,05,47,1.80
2012,05,19,05,48,1.80
2012,05,19,05,49,1.80
2012,05,19,05,50,1.80
2012,05,19,05,51,1.80
2012,05,19,05,52,1.90
2012,05,19,05,53,1.90
2012,05,19,05,54,1.90
2012,05,19,05,55,1.90
2012,05,19,05,56,1.90
2012,05,19,05,57,1.80
2012,05,19,05,58,1.80
2012,05,19,05,59,1.90
2012,05,19,06,00,2.00
2012,05,19,06,01,2.10
2012,05,19,06,02,2.10
2012,05,19,06,03,2.20
2012,05,19,06,04,2.20
2012,05,19,06,05,2.30
2012,05,19,06,06,2.40
2012,05,19,06,07,2.50
2012,05,19,06,08,2.70
2012,05,19,06,09,2.80
2012,05,19,06,10,2.90
2012,05,19,06,11,2.90
2012,05,19,06,12,3.00
2012,05,19,06,13,3.10
2012,05,19,06,14,3.10
2012,05,19,06,15,3.10
2012,05,19,06,16,3.20
2012,05,19,06,17,3.20
2012,05,19,06,18,3.30
2012,05,19,06,19,3.30
2012,05,19,06,20,3.30
2012,05,19,06,21,3.40
2012,05,19,06,22,3.40
2012,05,19,06,23,3.40
2012,05,19,06,24,3.50
2012,05,19,06,25,3.50
2012,05,19,06,26,3.50
2012,05,19,06,27,3.60
2012,05,19,06,28,3.60
2012,05,19,06,29,3.60
2012,05,19,06,30,3.70
2012,05,19,06,31,3.70
2012,05,19,06,32,3.70
2012,05,19,06,33,3.80
2012,05,19,06,34,3.80
2012,05,19,06,35,3.80
2012,05,19,06,36,3.80
2012,05,19,06,37,3.90
2012,05,19,06,38,4.00
2012,05,19,06,39,4.00
2012,05,19,06,40,4.10
2012,05,19,06,41,4.10
2012,05,19,06,42,4.20
2012,05,19,06,43,4.20
2012,05,19,06,44,4.30
2012,05,19,06,45,4.30
2012,05,19,06,46,4.30
2012,05,19,06,47,4.40
2012,05,19,06,48,4.40
2012,05,19,06,49,4.40
2012,05,19,06,50,4.50
2012,05,19,06,51,4.50
2012,05,19,06,52,4.60
2012,05,19,06,53,4.70
2012,05,19,06,54,4.70
2012,05,19,06,55,4.80
2012,05,19,06,56,4.80
2012,05,19,06,57,4.90
2012,05,19,06,58,4.90
2012,05,19,06,59,4.90
2012,05,19,07,00,5.10
2012,05,19,07,01,5.10
2012,05,19,07,02,5.10
2012,05,19,07,03,5.20
2012,05,19,07,04,5.20
2012,05,19,07,05,5.30
2012,05,19,07,06,5.30
2012,05,19,07,07,5.40
2012,05,19,07,08,5.50
2012,05,19,07,09,5.60
2012,05,19,07,10,5.60
2012,05,19,07,11,5.60
2012,05,19,07,12,5.70
2012,05,19,07,13,5.70
2012,05,19,07,14,5.70
2012,05,19,07,15,5.80
2012,05,19,07,16,5.90
2012,05,19,07,17,5.90
2012,05,19,07,18,6.00
2012,05,19,07,19,6.10
2012,05,19,07,20,6.20
2012,05,19,07,21,6.40
2012,05,19,07,22,6.50
2012,05,19,07,23,6.60
2012,05,19,07,24,6.70
2012,05,19,07,25,6.80
2012,05,19,07,26,6.90
2012,05,19,07,27,7.00
2012,05,19,07,28,7.10
2012,05,19,07,29,7.20
2012,05,19,07,30,7.30
2012,05,19,07,31,7.40
2012,05,19,07,32,7.50
2012,05,19,07,33,7.60
2012,05,19,07,34,7.80
2012,05,19,07,35,7.80
2012,05,19,07,36,7.90
2012,05,19,07,37,8.00
2012,05,19,07,38,8.00
2012,05,19,07,39,8.00
2012,05,19,07,40,8.00
2012,05,19,07,41,8.00
2012,05,19,07,42,8.00
2012,05,19,07,43,8.10
2012,05,19,07,44,8.20
2012,05,19,07,45,8.10
2012,05,19,07,46,8.10
2012,05,19,07,47,8.00
2012,05,19,07,48,8.00
2012,05,19,07,49,8.00
2012,05,19,07,50,8.10
2012,05,19,07,51,8.10
2012,05,19,07,52,8.20
2012,05,19,07,53,8.20
2012,05,19,07,54,8.20
2012,05,19,07,55,8.30
2012,05,19,07,56,8.30
2012,05,19,07,57,8.40
2012,05,19,07,58,8.40
2012,05,19,07,59,8.50
2012,05,19,08,00,8.50
2012,05,19,08,01,8.60
2012,05,19,08,02,8.70
2012,05,19,08,03,8.80
2012,05,19,08,04,8.80
2012,05,19,08,05,8.90
2012,05,19,08,06,8.90
2012,05,19,08,07,8.90
2012,05,19,08,08,8.90
2012,05,19,08,09,8.90
2012,05,19,08,10,8.90
2012,05,19,08,11,8.80
2012,05,19,08,12,8.70
2012,05,19,08,13,8.60
2012,05,19,08,14,8.60
2012,05,19,08,15,8.60
2012,05,19,08,16,8.50
2012,05,19,08,17,8.50
2012,05,19,08,18,8.40
2012,05,19,08,19,8.40
2012,05,19,08,20,8.40
2012,05,19,08,21,8.40
2012,05,19,08,22,8.30
2012,05,19,08,23,8.30
2012,05,19,08,24,8.30
2012,05,19,08,25,8.30
2012,05,19,08,26,8.40
2012,05,19,08,27,8.40
2012,05,19,08,28,8.40
2012,05,19,08,29,8.40
2012,05,19,08,30,8.40
2012,05,19,08,31,8.40
2012,05,19,08,32,8.40
2012,05,19,08,33,8.40
2012,05,19,08,34,8.40
2012,05,19,08,35,8.40
2012,05,19,08,36,8.30
2012,05,19,08,37,8.30
2012,05,19,08,38,8.30
2012,05,19,08,39,8.30
2012,05,19,08,40,8.30
2012,05,19,08,41,8.30
2012,05,19,08,42,8.30
2012,05,19,08,43,8.30
2012,05,19,08,44,8.40
2012,05,19,08,45,8.40
2012,05,19,08,46,8.40
2012,05,19,08,47,8.50
2012,05,19,08,48,8.50
2012,05,19,08,49,8.60
2012,05,19,08,50,8.60
2012,05,19,08,51,8.70
2012,05,19,08,52,8.70
2012,05,19,08,53,8.70
2012,05,19,08,54,8.80
2012,05,19,08,55,8.90
2012,05,19,08,56,8.90
2012,05,19,08,57,8.90
2012,05,19,08,58,8.90
2012,05,19,08,59,9.00
2012,05,19,09,00,9.00
2012,05,19,09,01,9.10
2012,05,19,09,02,9.20
2012,05,19,09,03,9.20
2012,05,19,09,04,9.20
2012,05,19,09,05,9.20
2012,05,19,09,06,9.30
2012,05,19,09,07,9.30
2012,05,19,09,08,9.30
2012,05,19,09,09,9.20
2012,05,19,09,10,9.20
2012,05,19,09,11,9.10
2012,05,19,09,12,9.00
2012,05,19,09,13,8.90
2012,05,19,09,14,8.80
2012,05,19,09,15,8.80
2012,05,19,09,16,8.70
2012,05,19,09,17,8.70
2012,05,19,09,18,8.70
2012,05,19,09,19,8.70
2012,05,19,09,20,8.70
2012,05,19,09,21,8.70
2012,05,19,09,22,8.70
2012,05,19,09,23,8.70
2012,05,19,09,24,8.70
2012,05,19,09,25,8.70
2012,05,19,09,26,8.70
2012,05,19,09,27,8.70
2012,05,19,09,28,8.70
2012,05,19,09,29,8.70
2012,05,19,09,30,8.70
2012,05,19,09,31,8.70
2012,05,19,09,32,8.80
2012,05,19,09,33,8.90
2012,05,19,09,34,8.90
2012,05,19,09,35,8.90
2012,05,19,09,36,9.00
2012,05,19,09,37,9.00
2012,05,19,09,38,9.10
2012,05,19,09,39,9.20
2012,05,19,09,40,9.20
2012,05,19,09,41,9.20
2012,05,19,09,42,9.30
2012,05,19,09,43,9.40
2012,05,19,09,44,9.40
2012,05,19,09,45,9.50
2012,05,19,09,46,9.70
2012,05,19,09,47,9.80
2012,05,19,09,48,10.00
2012,05,19,09,49,10.10
2012,05,19,09,50,10.30
2012,05,19,09,51,10.40
2012,05,19,09,52,10.40
2012,05,19,09,53,10.30
2012,05,19,09,54,10.30
2012,05,19,09,55,10.20
2012,05,19,09,56,10.20
2012,05,19,09,57,10.10
2012,05,19,09,58,10.10
2012,05,19,09,59,10.10
2012,05,19,10,00,10.10
2012,05,19,10,01,10.00
2012,05,19,10,02,9.90
2012,05,19,10,03,9.90
2012,05,19,10,04,9.90
2012,05,19,10,05,9.90
2012,05,19,10,06,10.10
2012,05,19,10,07,10.20
2012,05,19,10,08,10.20
2012,05,19,10,09,10.10
2012,05,19,10,10,10.10
2012,05,19,10,11,10.10
2012,05,19,10,12,10.10
2012,05,19,10,13,10.10
2012,05,19,10,14,10.10
2012,05,19,10,15,10.10
2012,05,19,10,16,10.10
2012,05,19,10,17,10.10
2012,05,19,10,18,9.90
2012,05,19,10,19,9.90
2012,05,19,10,20,9.90
2012,05,19,10,21,9.90
2012,05,19,10,22,9.90
2012,05,19,10,23,9.90
2012,05,19,10,24,9.90
2012,05,19,10,25,9.90
2012,05,19,10,26,9.90
2012,05,19,10,27,10.10
2012,05,19,10,28,10.10
2012,05,19,10,29,10.10
2012,05,19,10,30,10.10
2012,05,19,10,31,10.10
2012,05,19,10,32,10.20
2012,05,19,10,33,10.20
2012,05,19,10,34,10.20
2012,05,19,10,35,10.20
2012,05,19,10,36,10.30
2012,05,19,10,37,10.30
2012,05,19,10,38,10.30
2012,05,19,10,39,10.20
2012,05,19,10,40,10.00
2012,05,19,10,41,9.90
2012,05,19,10,42,9.90
2012,05,19,10,43,9.80
2012,05,19,10,44,9.90
2012,05,19,10,45,9.90
2012,05,19,10,46,9.80
2012,05,19,10,47,9.70
2012,05,19,10,48,9.70
2012,05,19,10,49,9.70
2012,05,19,10,50,9.70
2012,05,19,10,51,9.70
2012,05,19,10,52,9.70
2012,05,19,10,53,9.80
2012,05,19,10,54,9.80
2012,05,19,10,55,9.80
2012,05,19,10,56,9.80
2012,05,19,10,57,9.80
2012,05,19,10,58,9.90
2012,05,19,10,59,9.90
2012,05,19,11,00,9.80
2012,05,19,11,01,9.80
2012,05,19,11,02,9.80
2012,05,19,11,03,9.80
2012,05,19,11,04,9.70
2012,05,19,11,05,9.70
2012,05,19,11,06,9.70
2012,05,19,11,07,9.80
2012,05,19,11,08,9.80
2012,05,19,11,09,9.70
2012,05,19,11,10,9.70
2012,05,19,11,11,9.80
2012,05,19,11,12,10.00
2012,05,19,11,13,10.10
2012,05,19,11,14,10.20
2012,05,19,11,15,10.30
2012,05,19,11,16,10.30
2012,05,19,11,17,10.30
2012,05,19,11,18,10.40
2012,05,19,11,19,10.40
2012,05,19,11,20,10.40
2012,05,19,11,21,10.40
2012,05,19,11,22,10.40
2012,05,19,11,23,10.40
2012,05,19,11,24,10.50
2012,05,19,11,25,10.60
2012,05,19,11,26,10.60
2012,05,19,11,27,10.60
2012,05,19,11,28,10.60
2012,05,19,11,29,10.60
2012,05,19,11,30,10.60
2012,05,19,11,31,10.60
2012,05,19,11,32,10.60
2012,05,19,11,33,10.60
2012,05,19,11,34,10.60
2012,05,19,11,35,10.60
2012,05,19,11,36,10.60
2012,05,19,11,37,10.50
2012,05,19,11,38,10.40
2012,05,19,11,39,10.50
2012,05,19,11,40,10.60
2012,05,19,11,41,10.70
2012,05,19,11,42,10.80
2012,05,19,11,43,10.80
2012,05,19,11,44,10.80
2012,05,19,11,45,10.70
2012,05,19,11,46,10.80
2012,05,19,11,47,10.90
2012,05,19,11,48,10.90
2012,05,19,11,49,10.90
2012,05,19,11,50,10.80
2012,05,19,11,51,10.80
2012,05,19,11,52,10.70
2012,05,19,11,53,10.70
2012,05,19,11,54,10.60
2012,05,19,11,55,10.60
2012,05,19,11,56,10.60
2012,05,19,11,57,10.60
2012,05,19,11,58,10.70
2012,05,19,11,59,10.80
2012,05,19,12,00,10.80
2012,05,19,12,01,10.80
2012,05,19,12,02,10.80
2012,05,19,12,03,10.80
2012,05,19,12,04,10.90
2012,05,19,12,05,10.90
2012,05,19,12,06,10.90
2012,05,19,12,07,10.90
2012,05,19,12,08,10.90
2012,05,19,12,09,11.00
2012,05,19,12,10,11.10
2012,05,19,12,11,11.20
2012,05,19,12,12,11.30
2012,05,19,12,13,11.30
2012,05,19,12,14,11.40
2012,05,19,12,15,11.50
2012,05,19,12,16,11.60
2012,05,19,12,17,11.60
2012,05,19,12,18,11.60
2012,05,19,12,19,11.70
2012,05,19,12,20,11.80
2012,05,19,12,21,11.80
2012,05,19,12,22,11.90
2012,05,19,12,23,12.00
2012,05,19,12,24,12.10
2012,05,19,12,25,12.20
2012,05,19,12,26,12.30
2012,05,19,12,27,12.50
2012,05,19,12,28,12.60
2012,05,19,12,29,12.60
2012,05,19,12,30,12.60
2012,05,19,12,31,12.60
2012,05,19,12,32,12.60
2012,05,19,12,33,12.70
2012,05,19,12,34,12.80
2012,05,19,12,35,12.90
2012,05,19,12,36,12.90
2012,05,19,12,37,12.90
2012,05,19,12,38,12.80
2012,05,19,12,39,12.60
2012,05,19,12,40,12.40
2012,05,19,12,41,12.30
2012,05,19,12,42,12.10
2012,05,19,12,43,12.10
2012,05,19,12,44,11.90
2012,05,19,12,45,11.80
2012,05,19,12,46,11.70
2012,05,19,12,47,11.70
2012,05,19,12,48,11.60
2012,05,19,12,49,11.40
2012,05,19,12,50,11.40
2012,05,19,12,51,11.40
2012,05,19,12,52,11.40
2012,05,19,12,53,11.30
2012,05,19,12,54,11.30
2012,05,19,12,55,11.30
2012,05,19,12,56,11.40
2012,05,19,12,57,11.40
2012,05,19,12,58,11.30
2012,05,19,12,59,11.20
2012,05,19,13,00,11.10
2012,05,19,13,01,11.10
2012,05,19,13,02,11.00
2012,05,19,13,03,11.10
2012,05,19,13,04,11.10
2012,05,19,13,05,10.90
2012,05,19,13,06,10.90
2012,05,19,13,07,11.00
2012,05,19,13,08,11.10
2012,05,19,13,09,11.10
2012,05,19,13,10,11.00
2012,05,19,13,11,10.90
2012,05,19,13,12,10.90
2012,05,19,13,13,10.90
2012,05,19,13,14,10.90
2012,05,19,13,15,10.90
2012,05,19,13,16,10.90
2012,05,19,13,17,11.00
2012,05,19,13,18,11.10
2012,05,19,13,19,11.10
2012,05,19,13,20,11.20
2012,05,19,13,21,11.20
2012,05,19,13,22,11.20
2012,05,19,13,23,11.20
2012,05,19,13,24,11.20
2012,05,19,13,25,11.30
2012,05,19,13,26,11.30
2012,05,19,13,27,11.40
2012,05,19,13,28,11.40
2012,05,19,13,29,11.60
2012,05,19,13,30,11.60
2012,05,19,13,31,11.60
2012,05,19,13,32,11.60
2012,05,19,13,33,11.60
2012,05,19,13,34,11.60
2012,05,19,13,35,11.60
2012,05,19,13,36,11.70
2012,05,19,13,37,11.80
2012,05,19,13,38,11.90
2012,05,19,13,39,12.00
2012,05,19,13,40,12.10
2012,05,19,13,41,12.20
2012,05,19,13,42,12.20
2012,05,19,13,43,12.20
2012,05,19,13,44,12.20
2012,05,19,13,45,12.10
2012,05,19,13,46,12.00
2012,05,19,13,47,12.00
2012,05,19,13,48,11.90
2012,05,19,13,49,11.90
2012,05,19,13,50,11.80
2012,05,19,13,51,11.80
2012,05,19,13,52,11.80
2012,05,19,13,53,11.70
2012,05,19,13,54,11.60
2012,05,19,13,55,11.60
2012,05,19,13,56,11.60
2012,05,19,13,57,11.70
2012,05,19,13,58,11.80
2012,05,19,13,59,11.80
2012,05,19,14,00,11.80
2012,05,19,14,01,11.80
2012,05,19,14,02,11.90
2012,05,19,14,03,11.90
2012,05,19,14,04,11.90
2012,05,19,14,05,11.90
2012,05,19,14,06,11.90
2012,05,19,14,07,12.10
2012,05,19,14,08,12.10
2012,05,19,14,09,12.00
2012,05,19,14,10,12.10
2012,05,19,14,11,12.10
2012,05,19,14,12,12.30
2012,05,19,14,13,12.30
2012,05,19,14,14,12.30
2012,05,19,14,15,12.40
2012,05,19,14,16,12.50
2012,05,19,14,17,12.50
2012,05,19,14,18,12.50
2012,05,19,14,19,12.40
2012,05,19,14,20,12.40
2012,05,19,14,21,12.40
2012,05,19,14,22,12.30
2012,05,19,14,23,12.20
2012,05,19,14,24,12.20
2012,05,19,14,25,12.20
2012,05,19,14,26,12.20
2012,05,19,14,27,12.20
2012,05,19,14,28,12.20
2012,05,19,14,29,12.20
2012,05,19,14,30,12.40
2012,05,19,14,31,12.40
2012,05,19,14,32,12.30
2012,05,19,14,33,12.20
2012,05,19,14,34,12.10
2012,05,19,14,35,12.00
2012,05,19,14,36,12.10
2012,05,19,14,37,12.20
2012,05,19,14,38,12.20
2012,05,19,14,39,12.30
2012,05,19,14,40,12.30
2012,05,19,14,41,12.30
2012,05,19,14,42,12.40
2012,05,19,14,43,12.40
2012,05,19,14,44,12.50
2012,05,19,14,45,12.50
2012,05,19,14,46,12.50
2012,05,19,14,47,12.40
2012,05,19,14,48,12.40
2012,05,19,14,49,12.40
2012,05,19,14,50,12.40
2012,05,19,14,51,12.40
2012,05,19,14,52,12.50
2012,05,19,14,53,12.50
2012,05,19,14,54,12.30
2012,05,19,14,55,12.30
2012,05,19,14,56,12.40
2012,05,19,14,57,12.50
2012,05,19,14,58,12.40
2012,05,19,14,59,12.40
2012,05,19,15,00,12.30
2012,05,19,15,01,12.30
2012,05,19,15,02,12.30
2012,05,19,15,03,12.50
2012,05,19,15,04,12.50
2012,05,19,15,05,12.50
2012,05,19,15,06,12.50
2012,05,19,15,07,12.50
2012,05,19,15,08,12.50
2012,05,19,15,09,12.50
2012,05,19,15,10,12.40
2012,05,19,15,11,12.50
2012,05,19,15,12,12.50
2012,05,19,15,13,12.50
2012,05,19,15,14,12.60
2012,05,19,15,15,12.60
2012,05,19,15,16,12.60
2012,05,19,15,17,12.60
2012,05,19,15,18,12.70
2012,05,19,15,19,12.80
2012,05,19,15,20,12.80
2012,05,19,15,21,12.80
2012,05,19,15,22,12.80
2012,05,19,15,23,12.90
2012,05,19,15,24,12.90
2012,05,19,15,25,12.90
2012,05,19,15,26,12.90
2012,05,19,15,27,12.80
2012,05,19,15,28,12.90
2012,05,19,15,29,12.90
2012,05,19,15,30,12.90
2012,05,19,15,31,13.00
2012,05,19,15,32,13.00
2012,05,19,15,33,13.00
2012,05,19,15,34,12.90
2012,05,19,15,35,13.00
2012,05,19,15,36,13.10
2012,05,19,15,37,13.10
2012,05,19,15,38,13.00
2012,05,19,15,39,12.80
2012,05,19,15,40,12.80
2012,05,19,15,41,12.80
2012,05,19,15,42,12.70
2012,05,19,15,43,12.70
2012,05,19,15,44,12.80
2012,05,19,15,45,12.80
2012,05,19,15,46,12.80
2012,05,19,15,47,12.80
2012,05,19,15,48,12.70
2012,05,19,15,49,12.70
2012,05,19,15,50,12.70
2012,05,19,15,51,12.80
2012,05,19,15,52,12.70
2012,05,19,15,53,12.80
2012,05,19,15,54,12.70
2012,05,19,15,55,12.70
2012,05,19,15,56,12.70
2012,05,19,15,57,12.60
2012,05,19,15,58,12.50
2012,05,19,15,59,12.50
2012,05,19,16,00,12.60
2012,05,19,16,01,12.50
2012,05,19,16,02,12.50
2012,05,19,16,03,12.50
2012,05,19,16,04,12.40
2012,05,19,16,05,12.40
2012,05,19,16,06,12.30
2012,05,19,16,07,12.30
2012,05,19,16,08,12.30
2012,05,19,16,09,12.30
2012,05,19,16,10,12.30
2012,05,19,16,11,12.30
2012,05,19,16,12,12.30
2012,05,19,16,13,12.30
2012,05,19,16,14,12.30
2012,05,19,16,15,12.40
2012,05,19,16,16,12.30
2012,05,19,16,17,12.40
2012,05,19,16,18,12.40
2012,05,19,16,19,12.40
2012,05,19,16,20,12.40
2012,05,19,16,21,12.40
2012,05,19,16,22,12.40
2012,05,19,16,23,12.50
2012,05,19,16,24,12.50
2012,05,19,16,25,12.50
2012,05,19,16,26,12.50
2012,05,19,16,27,12.50
2012,05,19,16,28,12.60
2012,05,19,16,29,12.60
2012,05,19,16,30,12.70
2012,05,19,16,31,12.80
2012,05,19,16,32,12.80
2012,05,19,16,33,12.80
2012,05,19,16,34,12.80
2012,05,19,16,35,12.80
2012,05,19,16,36,12.80
2012,05,19,16,37,12.80
2012,05,19,16,38,12.80
2012,05,19,16,39,12.80
2012,05,19,16,40,12.80
2012,05,19,16,41,12.80
2012,05,19,16,42,12.80
2012,05,19,16,43,12.80
2012,05,19,16,44,12.80
2012,05,19,16,45,12.80
2012,05,19,16,46,12.80
2012,05,19,16,47,12.90
2012,05,19,16,48,13.00
2012,05,19,16,49,13.10
2012,05,19,16,50,13.20
2012,05,19,16,51,13.10
2012,05,19,16,52,13.10
2012,05,19,16,53,13.10
2012,05,19,16,54,13.00
2012,05,19,16,55,12.90
2012,05,19,16,56,12.90
2012,05,19,16,57,12.80
2012,05,19,16,58,12.70
2012,05,19,16,59,12.70
2012,05,19,17,00,12.80
2012,05,19,17,01,12.80
2012,05,19,17,02,12.80
2012,05,19,17,03,12.80
2012,05,19,17,04,12.80
2012,05,19,17,05,12.70
2012,05,19,17,06,12.60
2012,05,19,17,07,12.50
2012,05,19,17,08,12.50
2012,05,19,17,09,12.50
2012,05,19,17,10,12.60
2012,05,19,17,11,12.60
2012,05,19,17,12,12.60
2012,05,19,17,13,12.60
2012,05,19,17,14,12.70
2012,05,19,17,15,12.80
2012,05,19,17,16,12.80
2012,05,19,17,17,12.90
2012,05,19,17,18,13.00
2012,05,19,17,19,13.20
2012,05,19,17,20,13.30
2012,05,19,17,21,13.50
2012,05,19,17,22,13.50
2012,05,19,17,23,13.50
2012,05,19,17,24,13.40
2012,05,19,17,25,13.40
2012,05,19,17,26,13.40
2012,05,19,17,27,13.40
2012,05,19,17,28,13.50
2012,05,19,17,29,13.50
2012,05,19,17,30,13.50
2012,05,19,17,31,13.60
2012,05,19,17,32,13.60
2012,05,19,17,33,13.60
2012,05,19,17,34,13.60
2012,05,19,17,35,13.60
2012,05,19,17,36,13.70
2012,05,19,17,37,13.70
2012,05,19,17,38,13.70
2012,05,19,17,39,13.70
2012,05,19,17,40,13.70
2012,05,19,17,41,13.70
2012,05,19,17,42,13.70
2012,05,19,17,43,13.70
2012,05,19,17,44,13.70
2012,05,19,17,45,13.70
2012,05,19,17,46,13.80